TimeEDT,TemperatureF,Dew PointF,Humidity,Sea Level PressureIn,VisibilityMPH,Wind Direction,Wind SpeedMPH,Gust SpeedMPH,PrecipitationIn,Events,Conditions,WindDirDegrees,DateUTC
12:14 AM,32.2,25.3,76,30.08,10.0,Calm,Calm,-,N/A,,Overcast,0,2013-03-24 04:14:00
12:35 AM,32.5,24.1,71,30.07,10.0,NE,4.6,-,N/A,,Overcast,40,2013-03-24 04:35:00
12:55 AM,32.5,22.8,67,30.08,10.0,NE,3.5,-,N/A,,Overcast,50,2013-03-24 04:55:00
1:14 AM,32.5,21.7,64,30.07,10.0,ENE,4.6,-,N/A,,Overcast,60,2013-03-24 05:14:00
1:35 AM,32.5,21.2,63,30.07,10.0,NE,4.6,-,N/A,,Overcast,50,2013-03-24 05:35:00
1:54 AM,32.5,21.2,63,30.06,10.0,NE,4.6,-,N/A,,Overcast,40,2013-03-24 05:54:00
2:15 AM,32.5,21.2,63,30.07,10.0,ENE,4.6,-,N/A,,Overcast,60,2013-03-24 06:15:00
2:35 AM,32.0,20.8,63,30.06,10.0,ENE,4.6,-,N/A,,Overcast,70,2013-03-24 06:35:00
2:54 AM,31.8,20.3,62,30.07,10.0,East,3.5,-,N/A,,Overcast,80,2013-03-24 06:54:00
3:35 AM,30.6,20.8,67,30.06,10.0,Calm,Calm,-,N/A,,Overcast,0,2013-03-24 07:35:00
3:54 AM,30.9,20.5,65,30.06,10.0,Calm,Calm,-,N/A,,Overcast,0,2013-03-24 07:54:00
4:15 AM,30.4,20.3,66,30.05,10.0,Calm,Calm,-,N/A,,Overcast,0,2013-03-24 08:15:00
4:35 AM,30.2,20.7,68,30.05,10.0,Calm,Calm,-,N/A,,Overcast,0,2013-03-24 08:35:00
4:55 AM,30.2,20.1,66,30.04,10.0,Calm,Calm,-,N/A,,Overcast,0,2013-03-24 08:55:00
5:15 AM,30.2,22.1,72,30.03,10.0,Calm,Calm,-,N/A,,Overcast,0,2013-03-24 09:15:00
5:35 AM,30.2,21.2,69,30.02,10.0,Calm,Calm,-,N/A,,Mostly Cloudy,0,2013-03-24 09:35:00
5:55 AM,30.2,22.5,73,30.02,10.0,Calm,Calm,-,N/A,,Clear,0,2013-03-24 09:55:00
6:15 AM,30.2,21.9,71,30.02,10.0,Calm,Calm,-,N/A,,Clear,0,2013-03-24 10:15:00
6:34 AM,30.2,22.3,72,30.02,10.0,Calm,Calm,-,N/A,,Clear,0,2013-03-24 10:34:00
6:55 AM,30.2,22.5,73,30.02,10.0,NE,3.5,-,N/A,,Clear,50,2013-03-24 10:55:00
7:15 AM,30.2,22.8,74,30.02,10.0,NE,4.6,-,N/A,,Clear,50,2013-03-24 11:15:00
7:34 AM,30.2,23.0,75,30.02,10.0,NE,3.5,-,N/A,,Clear,50,2013-03-24 11:34:00
7:55 AM,30.2,23.5,76,30.02,10.0,NE,3.5,-,N/A,,Scattered Clouds,50,2013-03-24 11:55:00
8:15 AM,30.2,23.9,77,30.01,10.0,NE,5.8,-,N/A,,Scattered Clouds,40,2013-03-24 12:15:00
8:34 AM,30.2,24.3,79,30.02,10.0,NE,6.9,-,N/A,,Clear,50,2013-03-24 12:34:00
8:55 AM,30.2,24.4,79,30.01,10.0,NE,5.8,-,N/A,,Clear,50,2013-03-24 12:55:00
9:15 AM,30.2,24.4,79,30.01,10.0,ENE,4.6,-,N/A,,Clear,60,2013-03-24 13:15:00
9:35 AM,30.2,24.3,79,30.00,10.0,NE,4.6,-,N/A,,Clear,50,2013-03-24 13:35:00
9:55 AM,30.2,24.1,78,29.99,10.0,NE,8.1,-,N/A,,Clear,50,2013-03-24 13:55:00
10:15 AM,30.2,23.7,77,29.97,10.0,ENE,9.2,-,N/A,,Clear,60,2013-03-24 14:15:00
10:35 AM,31.6,24.1,74,29.97,10.0,ENE,10.4,17.3,N/A,,Clear,70,2013-03-24 14:35:00
10:54 AM,32.2,24.4,73,29.96,10.0,ENE,9.2,-,N/A,,Clear,60,2013-03-24 14:54:00
11:15 AM,32.5,24.1,71,29.95,10.0,ENE,9.2,17.3,N/A,,Clear,70,2013-03-24 15:15:00
11:35 AM,32.5,23.7,70,29.95,10.0,East,11.5,18.4,N/A,,Clear,80,2013-03-24 15:35:00
11:55 AM,34.3,24.8,68,29.94,10.0,East,11.5,16.1,N/A,,Clear,80,2013-03-24 15:55:00
12:15 PM,35.1,24.6,66,29.94,10.0,East,12.7,16.1,N/A,,Scattered Clouds,90,2013-03-24 16:15:00
12:34 PM,35.1,24.1,64,29.93,10.0,ENE,11.5,16.1,N/A,,Scattered Clouds,70,2013-03-24 16:34:00
12:55 PM,35.1,23.4,62,29.91,10.0,ENE,8.1,-,N/A,,Scattered Clouds,60,2013-03-24 16:55:00
1:15 PM,35.1,23.5,63,29.90,10.0,East,11.5,-,N/A,,Scattered Clouds,80,2013-03-24 17:15:00
1:34 PM,35.1,23.0,61,29.90,10.0,East,10.4,-,N/A,,Mostly Cloudy,80,2013-03-24 17:34:00
1:55 PM,35.1,22.6,61,29.89,10.0,East,11.5,-,N/A,,Mostly Cloudy,90,2013-03-24 17:55:00
2:15 PM,37.4,23.0,56,29.88,10.0,NE,10.4,-,N/A,,Mostly Cloudy,50,2013-03-24 18:15:00
2:34 PM,37.4,23.0,56,29.87,10.0,East,13.8,-,N/A,,Scattered Clouds,90,2013-03-24 18:34:00
2:55 PM,37.6,22.3,54,29.86,10.0,East,11.5,-,N/A,,Scattered Clouds,90,2013-03-24 18:55:00
3:15 PM,37.6,22.3,54,29.85,10.0,East,10.4,-,N/A,,Mostly Cloudy,80,2013-03-24 19:15:00
3:34 PM,38.1,21.7,52,29.84,10.0,East,10.4,18.4,N/A,,Mostly Cloudy,80,2013-03-24 19:34:00
3:55 PM,37.6,21.9,53,29.82,10.0,East,16.1,19.6,N/A,,Overcast,90,2013-03-24 19:55:00
4:15 PM,37.6,21.4,52,29.81,10.0,East,11.5,18.4,N/A,,Overcast,80,2013-03-24 20:15:00
4:34 PM,37.6,21.4,52,29.81,10.0,NE,8.1,-,N/A,,Overcast,40,2013-03-24 20:34:00
4:55 PM,37.6,21.0,51,29.80,10.0,ENE,8.1,16.1,N/A,,Overcast,60,2013-03-24 20:55:00
5:15 PM,37.6,20.1,49,29.79,10.0,NE,13.8,17.3,N/A,,Overcast,40,2013-03-24 21:15:00
5:34 PM,37.8,19.8,48,29.78,10.0,North,8.1,17.3,N/A,,Overcast,10,2013-03-24 21:34:00
5:55 PM,37.6,20.1,49,29.77,10.0,NNE,10.4,-,N/A,,Overcast,30,2013-03-24 21:55:00
6:15 PM,37.6,20.1,49,29.77,10.0,NE,13.8,19.6,N/A,,Mostly Cloudy,40,2013-03-24 22:15:00
6:35 PM,37.6,19.8,49,29.76,10.0,NNE,13.8,20.7,N/A,,Scattered Clouds,30,2013-03-24 22:35:00
6:55 PM,37.2,19.8,49,29.76,10.0,NE,11.5,19.6,N/A,,Clear,40,2013-03-24 22:55:00
7:14 PM,36.1,19.0,50,29.76,10.0,NNE,10.4,20.7,N/A,,Mostly Cloudy,30,2013-03-24 23:14:00
7:35 PM,35.1,18.5,51,29.76,10.0,NE,8.1,-,N/A,,Mostly Cloudy,40,2013-03-24 23:35:00
7:55 PM,35.1,19.4,53,29.77,10.0,NNE,8.1,-,N/A,,Mostly Cloudy,20,2013-03-24 23:55:00
8:14 PM,35.1,19.4,53,29.78,10.0,NNE,10.4,-,N/A,,Scattered Clouds,20,2013-03-25 00:14:00
8:35 PM,35.1,18.5,51,29.78,10.0,NNE,11.5,16.1,N/A,,Scattered Clouds,30,2013-03-25 00:35:00
8:54 PM,35.1,18.3,51,29.79,10.0,NNE,9.2,-,N/A,,Mostly Cloudy,30,2013-03-25 00:54:00
9:15 PM,35.1,18.1,50,29.79,10.0,NNE,11.5,19.6,N/A,,Mostly Cloudy,20,2013-03-25 01:15:00
9:35 PM,32.5,16.7,52,29.79,10.0,NNE,9.2,16.1,N/A,,Scattered Clouds,20,2013-03-25 01:35:00
9:54 PM,32.5,17.2,53,29.79,10.0,NNE,6.9,17.3,N/A,,Clear,20,2013-03-25 01:54:00
10:15 PM,32.5,17.6,54,29.79,10.0,NNE,8.1,-,N/A,,Mostly Cloudy,30,2013-03-25 02:15:00
10:35 PM,32.5,18.1,55,29.79,10.0,NNE,8.1,-,N/A,,Scattered Clouds,20,2013-03-25 02:35:00
10:54 PM,32.5,18.0,55,29.80,10.0,NE,6.9,-,N/A,,Clear,40,2013-03-25 02:54:00
11:15 PM,30.7,16.7,56,29.80,10.0,NNE,5.8,-,N/A,,Clear,20,2013-03-25 03:15:00
11:35 PM,30.2,16.9,58,29.80,10.0,NNE,4.6,-,N/A,,Clear,20,2013-03-25 03:35:00
11:54 PM,30.2,17.2,59,29.79,10.0,NNE,6.9,-,N/A,,Clear,20,2013-03-25 03:54:00